Location: *
(44.9308°N, 123.0197°W)
Time: 04:44:37
(UTC+00:00)

Okean 2 - Pass Details

Date: 09 April 2020
Orbit: 561 x 576 km, 82.5° (Epoch: 24 May)

Event Time Altitude Azimuth Distance (km) Brightness Sun altitude
Rises 12:41:56 0° 176° (S) 2,757 6.7 -10.1°
Reaches altitude 10° 12:44:09 10° 172° (S) 1,863 5.9 -9.8°
Maximum altitude 12:48:09 54° 95° (E) 692 4.2 -9.1°
Drops below altitude 10° 12:52:10 10° 18° (NNE) 1,869 6.6 -8.5°
Sets 12:54:23 0° 13° (NNE) 2,769 7.4 -8.1°
